星链-34515 (STARLINK-34515)

导读 | 豆包AI

STARLINK-34515是美国太空探索技术公司 SpaceX 星链互联网卫星星座的一员,于2025年6月28日由美国发射升空。它主要为全球范围提供低延迟、高速率的宽带互联网服务,填补偏远地区网络覆盖空白。该卫星延续星链设计,运行在近地轨道,依托大规模星座组网,服务普通消费、商业及特殊领域网络需求,是星链全球组网布局的重要组成部分。

基本信息
目录编号:
64712
目录名称:
STARLINK-34515
国际标识:
2025-142S
轨道中心:
EARTH
卫星名称:
星链-34515
卫星全名:
星链-34515 (STARLINK-34515)
卫星状态:
在轨 (已飞行259 天)
发射日期:
2025-06-28 UTC
国别 :
美国 (US)
星等 :
--
轨道信息
数据来源 国际轨道数据
星历时间: 2026-03-14T05:23:03+0800
18小时前
查看轨道信息
半长轴: 6950.146km
偏心率: 0.0004854
轨道倾角: 69.999°
近地点辐角 285.452°
升交点赤经 303.694°
平近点角 74.610°
近地点: 568.635km
远地点: 575.383km
周期: 96.106分钟
每日圈数: 14.983452
详细信息
固有亮度:
5
最大亮度:
2.5
卫星平台:
Starlink V1.0
覆盖范围:
全球
运营商:
太空探索技术公司
运营商所在国:
美国
制造商(研发单位):
太空探索技术公司
制造商所在国:
美国
使用方式:
暂无
卫星简介
Starlink 计划是 SpaceX 推出的全球卫星互联网项目,通过发射低轨道卫星,为全球尤其是偏远地区提供高速、低延迟的互联网服务。自 2019 年起,Starlink 已部署数千颗卫星,旨在缩小全球数字鸿沟,推动互联网普及。该项目还为军事、航空等行业提供通信支持,带来广泛经济效益。
2D轨道图
3D轨道图
轨道高度分析图
轨道倾角分析图
轨道综合分析图
查看轨道综合分析图